User: anonymous   Login
Location: Laterina
(43.5167°N, 11.7167°E)
Time: 03:09:45
(UTC+00:00)
Language:

Cosmos 1536 Rocket - Orbit

View from above orbital plane
View from above orbital plane
View from above satellite
View from above satellite

Ground track
Ground track

The orbit data is extracted from the following two-line orbital elements,

1 14700U 84013B   20339.45490097  .00000116  00000-0  11190-4 0  9997
2 14700  82.5389  53.7567 0021222 111.8634 259.0758 14.83307554988703
Epoch (UTC): 04 December 2020 10:55:03
Eccentricity: 0.0021222
inclination: 82.5389°
perigee height: 604 km
apogee height: 634 km
right ascension of ascending node: 53.7567°
argument of perigee: 111.8634°
revolutions per day: 14.83307554
mean anomaly at epoch: 259.0758°
orbit number at epoch: 98870

The dashed part of the orbit path shows where the satellite is in the earth's shadow,  

DLR